Home > Weather > Northeim > Past weeks

Flag for Germany Past Weather in Northeim, Lower Saxony, Germany — Yesterday and Last 2 Weeks

Now
58 °F

Partly sunny.


Feels Like: 58 °F
Forecast: 53 / 70 °F
Wind: No wind

Location: Fritzlar

Current Time: Jul 31, 2016 at 7:30:07 AM

Latest Report: Jul 31, 2016 at 6:00 AM


Visibility: 13 mi

Pressure: 29.90 "Hg

Humidity: 94%

Dew Point: 57 °F

Location of NortheimLocation

Past Weather in Northeim — Graph

°F

Northeim Temperature Yesterday

Maximum temperature yesterday: 75 °F (at 6:00 PM)
Minimum temperature yesterday: 60 °F (at 3:00 AM)
Average temperature yesterday: 67 °F

High & Low Weather Summary for the Past Weeks

 TemperatureHumidityPressure
High90 °F (Jul 20, 6:00 PM)98% (Jul 18, 3:00 AM)30.31 "Hg (Jul 18, 3:00 AM)
Low49 °F (Jul 16, 6:00 AM)26% (Jul 20, 6:00 PM)29.88 "Hg (Jul 29, 6:00 PM)
Average68 °F75%30.05 "Hg
* Reported Jul 16 6:00 AM — Jul 31 6:00 AM, Northeim, Weather by CustomWeather, © 2016

Note: Actual official high and low records may vary slightly from our data, if they occured in-between our weather recording intervals... More about our weather records

Advertising

Northeim Weather History for the Previous 24 Hours

Scroll right to see more
 ConditionsComfort  
Time TempWeatherWind HumidityBarometerVisibility
6:00 AM
Sun, Jul 31
58 °FPartly sunny.No wind94%29.90 "Hg12 mi
4:00 AM58 °FOvercast.N/A94%29.91 "Hg11 mi
3:00 AM56 °FOvercast.1 mph94%29.91 "Hg11 mi
1:00 AM60 °FOvercast.2 mph89%29.91 "Hg12 mi
12:00 AM62 °FOvercast.1 mph87%29.92 "Hg12 mi
10:00 PM
Sat, Jul 30
65 °FLight rain. Overcast.2 mph80%29.91 "Hg19 mi
9:00 PM66 °FPartly sunny.1 mph77%29.90 "Hg19 mi
7:00 PM73 °FPartly sunny.3 mph46%29.90 "Hg19 mi
6:00 PM75 °FScattered clouds.3 mph42%29.89 "Hg19 mi
4:00 PM74 °FScattered clouds.7 mph46%29.90 "Hg19 mi
3:00 PM74 °FScattered clouds.7 mph45%29.90 "Hg19 mi
1:00 PM74 °FScattered clouds.9 mph52%29.90 "Hg17 mi
12:00 PM72 °FScattered clouds.8 mph60%29.90 "Hg17 mi
10:00 AM66 °FLight rain. Overcast.3 mph87%29.91 "Hg11 mi
9:00 AM64 °FLow clouds.N/A90%29.92 "Hg8 mi
7:00 AM61 °FFog.No wind96%29.92 "Hg4 mi
Weather by CustomWeather, © 2016

See weather overviewHow to use our weather pages